User: anonymous   Login
Location: Unspecified
(0.0000°N, 0.0000°E)
Time: 09:02:33
(UTC+00:00)
Language:

PRISMA (TANGO) - Orbit

View from above orbital plane
View from above orbital plane
View from above satellite
View from above satellite

Ground track
Ground track

The orbit data is extracted from the following two-line orbital elements,

1 36827U 10028F   24113.52734744  .00001502  00000-0  45178-3 0  9990
2 36827  98.5070 316.4487 0043294  83.2501 277.3613 14.43517797589482
Epoch (UTC): 22 April 2024 12:39:22
Eccentricity: 0.0043294
inclination: 98.5070°
perigee height: 716 km
apogee height: 778 km
right ascension of ascending node: 316.4487°
argument of perigee: 83.2501°
revolutions per day: 14.43517797
mean anomaly at epoch: 277.3613°
orbit number at epoch: 58948

The dashed part of the orbit path shows where the satellite is in the earth's shadow,  

DLR